weather.gov     
National Weather Service

Regional Weather Roundup
NWS Homepage
This page is being discontinued on March 12, 2014.
The same data is available at this site. Please update your bookmarks.
Thank you, and we apologize for the inconvenience.
Please send an email to SR-SRH.Webmaster@noaa.gov with any concerns.


Current Version
Previous Version:    01  02  03  04  05  06  07  08  09  10  11  12  13  14  15  16  17  18  19  20  21  22  23  24  25  26  
[Printable]
347
ASUS42 KTBW 231610
RWRFL
FLORIDA REGIONAL WEATHER ROUNDUP
NATIONAL WEATHER SERVICE TAMPA BAY RUSKIN FL
1200 PM EDT THU OCT 23 2014

NOTE: "FAIR" INDICATES FEW OR NO CLOUDS BELOW 12,000 FEET WITH NO
SIGNIFICANT WEATHER AND/OR OBSTRUCTIONS TO VISIBILITY.


FLZ001>010-012>015-112-114-115-231700-
PANHANDLE FLORIDA

CITY           SKY/WX    TMP DP  RH WIND       PRES   REMARKS
PENSACOLA      SUNNY     67  48  50 E7        30.10F
PENSACOLA NAS  MOSUNNY   69  50  50 NE8       30.10F
MILTON NAS     MOSUNNY   67  46  47 E9        30.12S
CRESTVIEW      SUNNY     70  48  45 SE7       30.13S
DUKE FIELD     SUNNY     68  44  42 VRB6      30.11S
VALPARAISO     MOSUNNY   68  46  46 VRB3      30.11S
MARY ESTHER    SUNNY     69  41  36 E12       30.09F
PANAMA CITY    FAIR      69  45  41 E9        30.09S
TYNDALL AFB    SUNNY     69  48  47 E9        30.09F
APALACHICOLA   SUNNY     74  47  38 E12       30.08F

STATION/POSITION SKY/WX   TEMP    WIND        PRES    WAVE   SWELL
                          AIR SEA DIR/SP/G            HT/PER HT/PER
                          (F)     (DEG/KT/KT) (MB)    (FT/S) (FT/S)
30.1N   87.6W              68 78   70/ 12/ 16 1018.8R   3/ 5
29.2N   88.2W              72 80   50/ 12/ 16 1018.8R   4/ 6   3/ 6
28.8N   86.0W              72 80   70/ 16/ 19 1017.1F   4/ 5
PANAMA CITY BEAC           66 76   40/  8/ 11 1019.0S
CAPE SAN BLAS    NOT AVBL
TOWER C                    67      70/ 18/ 20 1018.1F
28.5N   84.5W              71 81   50/ 14/ 17 1017.4R   4/ 6   2/10

$$
FLZ011-016>038-118-127-128-134-139-239-231700-
NORTH FLORIDA

CITY           SKY/WX    TMP DP  RH WIND       PRES   REMARKS
MARIANNA       SUNNY     66  47  50 E8        30.10F
TALLAHASSEE    SUNNY     70  43  37 E9        30.10F
PERRY          SUNNY     68  46  45 NE7       30.10F
CROSS CITY       N/A     72  51  47 VRB6      30.07S
LAKE CITY      FAIR      68  50  52 NE7       30.09S
GAINESVILLE    SUNNY     72  52  49 NE13      30.07S
MAYPORT NAS    MOSUNNY   73  53  49 NE14      30.07S
JACKSONVILLE   MOSUNNY   71  55  56 NE12      30.07F
JAX NAS        MOSUNNY   74  52  46 N9G20     30.08S
JAX CRAIG      MOSUNNY   73  51  46 NE9       30.08R
JAX CECIL      MOSUNNY   70  55  60 NE12      30.08S
FERNANDINA BEA FAIR      75  55  50 NE13G20   30.07R
ST AUGUSTINE   MOSUNNY   73  54  51 NE12G17   30.07S

STATION/POSITION SKY/WX   TEMP    WIND        PRES    WAVE   SWELL
                          AIR SEA DIR/SP/G            HT/PER HT/PER
                          (F)     (DEG/KT/KT) (MB)    (FT/S) (FT/S)
SHELL POINT                63      30/  6/ 10   N/A
KEATON BEACH               67      60/  8/ 12 1019.1R
CEDAR KEY                  66      50/ 14/ 16 1018.1R
FERNANDINA                 67 74   30/  9/ 13 1018.2R
30.7N   81.3W                 76                N/A     3/ 4
MAYPORT                    69 76   40/  8/ 14   N/A
31.4N   80.9W              64 75  360/ 10/ 12 1018.7F   3/ 6   2/ 6
ST AUGUSTINE               70      30/ 10/ 12 1018.6S

$$
FLZ040-043>046-052-053-057-058-063-144-231700-
INTERIOR CENTRAL FLORIDA

CITY           SKY/WX    TMP DP  RH WIND       PRES   REMARKS
OCALA          SUNNY     73  54  49 NE9       30.05F
THE VILLAGES     N/A     73  55  53 NE13      29.94F
LEESBURG       SUNNY     77  55  46 NE13      30.04S
SANFORD        MOSUNNY   78  54  43 NE10      30.03R
ORLANDO EXEC   SUNNY     78  58  49 NE12      30.01F
ORLANDO INTL   MOSUNNY   80  58  46 E10       30.01F
KISSIMMEE      SUNNY     77  57  50 E10       30.01F
WINTER HAVEN   SUNNY     79  59  50 E13       30.02F
LAKELAND       SUNNY     77  59  53 E14       30.01F
BARTOW         SUNNY     77  59  53 NE12      30.01F
OKEECHOBEE     CLOUDY    77  63  61 MISG      29.99S

$$
FLZ041-047-054-059-064-141-147-231700-
EAST CENTRAL FLORIDA

CITY           SKY/WX    TMP DP  RH WIND       PRES   REMARKS
ORMOND BEACH   MOSUNNY   73  54  49 N12G17    30.05S
DAYTONA BEACH  MOSUNNY   77  56  48 NE14      30.04S
DELAND         SUNNY     75  55  50 NE9G16    30.05S
NEW SMYRNA BEA MOSUNNY   77  55  47 NE13      30.05R
JFK SPACE CTR  MOSUNNY   78  58  49 NE12      30.02R
TITUSVILLE     MOSUNNY   77  57  50 NE16      30.02R
CAPE CANAVERAL SUNNY     78  58  51 NE8       30.01R
PATRICK AFB    SUNNY     78  60  52 NE13      30.00S
MELBOURNE      MOSUNNY   81  60  48 NE12      30.00R
VERO BEACH     MOSUNNY   78  61  55 NE12      29.99S
FT PIERCE      MOSUNNY   79  62  56 NE8       29.98S
STUART         MOSUNNY   77  63  61 NE15      29.99S

STATION/POSITION SKY/WX   TEMP    WIND        PRES    WAVE   SWELL
                          AIR SEA DIR/SP/G            HT/PER HT/PER
                          (F)     (DEG/KT/KT) (MB)    (FT/S) (FT/S)
28.5N   80.2W              75 80   50/ 10/ 16 1016.3S
28.9N   78.5W              74 81   20/ 10/ 14 1016.4F   4/ 7   3/ 7
TRIDENT PIER               78 80   70/  9/ 12 1015.8R
28.4N   80.5W                 79                N/A     2/10
27.6N   80.2W                 80                N/A     3/ 4

$$
FLZ050-056-061-142-242-148-248-149-249-151-251-155-255-
160-260-231700-
WEST CENTRAL FLORIDA

CITY           SKY/WX    TMP DP  RH WIND       PRES   REMARKS
CRYSTAL RIVER  FAIR      73  52  46 E9G18     30.04S
INVERNESS      FAIR      73  54  49 NE10      30.04F
BROOKSVILLE    SUNNY     75  57  53 E10       30.03F
ZEPHYRHILLS    FAIR      77  55  47 NE9       30.02F
CLEARWATER     SUNNY     77  60  55 NE8       30.00F
TAMPA INTL     MOSUNNY   77  57  50 NE8       30.01S
TAMPA EXEC     SUNNY     79  59  50 NE9       30.01S
PLANT CITY     SUNNY     79  57  47 NE7       30.02F
MACDILL AFB    SUNNY     77  62  59 E13       30.00S
ST PETERSBURG  SUNNY     76  62  62 E14       29.99F
SARASOTA       SUNNY     79  61  53 NE13      29.96F
VENICE           N/A     81  64  57 MISG      29.98R

STATION/POSITION SKY/WX   TEMP    WIND        PRES    WAVE   SWELL
                          AIR SEA DIR/SP/G            HT/PER HT/PER
                          (F)     (DEG/KT/KT) (MB)    (FT/S) (FT/S)
CEDAR KEY                  66      50/ 14/ 16 1018.1R
28.5N   84.5W              71 81   50/ 14/ 17 1017.4R   4/ 6   2/10
27.3N   84.3W                 82                N/A     6/ 6
CLEARWATER BEACH NOT AVBL
MIDDLE TAMPA BAY           74      70/ 12/ 15 1015.9S
VENICE                     78 79   50/ 11/ 16 1014.4S

$$
FLZ066-069-070-075>078-162-262-165-265-231700-
SOUTHWEST FLORIDA AND KEYS

CITY           SKY/WX    TMP DP  RH WIND       PRES   REMARKS
PUNTA GORDA    MOSUNNY   81  65  58 E15G24    29.98S
FT MYERS       MOSUNNY   80  66  62 NE18      29.94F
SOUTHWEST INTL PTSUNNY   79  66  64 E15       29.95S
NAPLES         CLOUDY    81  70  69 NE15      29.93S
MARATHON       CLOUDY    80  76  87 E10G18    29.89F
KEY WEST NAS   CLOUDY    78  74  87 NE12      29.89S
KEY WEST INTL  LGT RAIN  78  77  96 NE9       29.89S

STATION/POSITION SKY/WX   TEMP    WIND        PRES    WAVE   SWELL
                          AIR SEA DIR/SP/G            HT/PER HT/PER
                          (F)     (DEG/KT/KT) (MB)    (FT/S) (FT/S)
VENICE                     78 79   50/ 11/ 16 1014.4S
NAPLES                     78 82   50/  9/ 15 1014.1S
26.0N   85.6W              79 81   50/ 19/ 21 1014.0R   6/ 7
DRY TORTUGAS               79      70/ 21/ 24 1011.7R
NW FL BAY                  77      60/ 12/ 14 1013.0F
SAND KEY                   77      60/ 18/ 20 1011.8F
SOMBRERO KEY               80      90/ 18/ 19 1012.4F
LONG KEY                   78 78   80/ 10/ 12 1013.5R
MOLASSES REEF              79 83  100/ 18/ 20 1012.6F

$$
FLZ067-068-071>074-168-172>174-231700-
SOUTHEAST FLORIDA

CITY           SKY/WX    TMP DP  RH WIND       PRES   REMARKS
W PALM BEACH   CLOUDY    77  68  73 NE9       29.95S
FT LAUDER-EXEC LGT RAIN  77  72  84 NE9       29.94F
FT LAUDERDALE  CLOUDY    79  72  79 N9        29.93F
POMPANO BEACH  CLOUDY    79  73  82 NE16      29.95S
PEMBROKE PINES CLOUDY    80  72  76 NE6       29.95F
OPA LOCKA      CLOUDY    79  73  82 NE9       29.94F
MIAMI          CLOUDY    77  72  84 NE7       29.94F
WEST KENDALL   CLOUDY    81  73  76 NE13      29.93F
HOMESTEAD      CLOUDY    80  71  75 NE12      29.93S

STATION/POSITION SKY/WX   TEMP    WIND        PRES    WAVE   SWELL
                          AIR SEA DIR/SP/G            HT/PER HT/PER
                          (F)     (DEG/KT/KT) (MB)    (FT/S) (FT/S)
PORT EVERGLADES            77      20/  9/ 18 1013.7
VIRGINIA KEY               78 81   40/  6/ 11 1014.2R
LAKE WORTH                 78 81   30/ 17/ 22 1014.0S
FOWEY ROCKS                79 81   60/ 12/ 13 1013.9R
SETTLEMENT POINT           77      60/ 18/ 20 1014.8F

$$





U.S. Dept. of Commerce
NOAA National Weather Service
1325 East West Highway
Silver Spring, MD 20910
E-mail: w-nws.webmaster@noaa.gov
Page last modified: May 16, 2007
NATIONAL WEATHER SERVICE: for Safety, for Work, for Fun - FOR LIFE